User: anonymous
Location: Cincinnati Observatory Center
(39.1389°N, 84.4225°W)
Time: 14:16:08
(UTC-04:00)
Language:

COSMOS 2428 - Orbit

View from above orbital plane
View from above orbital plane
View from above satellite
View from above satellite

Ground track
Ground track

The orbit data is extracted from the following two-line orbital elements,

1 31792U 07029A   14206.21703669  .00000286  00000-0  18072-3 0  8386
2 31792 070.9609 109.8438 0005935 077.7222 035.3350 14.12378476364686
Epoch (UTC): 25 July 2014 05:12:31
Eccentricity: 0.0005935
inclination: 70.9609°
perigee height: 847 km
apogee height: 855 km
right ascension of ascending node: 109.8438°
argument of perigee: 77.7222°
revolutions per day: 14.12378476
mean anomaly at epoch: 35.3350°
orbit number at epoch: 36468

The dashed part of the orbit path shows where the satellite is in the earth's shadow,  

DLR